Change the Weather History Date:

Sunday, September 29, 2013

  Actual Average Record
Temperature  
Mean Temperature 52 °F -  
Max Temperature 60 °F 57 °F 77 °F (2011)
Min Temperature 44 °F 43 °F 37 °F (2010)
Degree Days  
Heating Degree Days 13    
Growing Degree Days 2 (Base 50)    
Moisture  
Dew Point 42 °F    
Average Humidity 69    
Maximum Humidity 93    
Minimum Humidity 40    
Precipitation  
Precipitation 0.00 in 0.09 in - ()
Sea Level Pressure  
Sea Level Pressure 29.95 in    
Wind  
Wind Speed 12 mph ()    
Max Wind Speed 21 mph    
Max Gust Speed 33 mph    
Visibility 7.1 miles    
Events      
Averages and records for this station are not official NWS values.
T = Trace of Precipitation, MM = Missing Value Source: Averaged Metar Reports

Daily Weather History Graph

Daily Weather History Graph

Search for Another Location

Airport or City:

Trip Planner

Search our weather history database for the weather conditions in past years. The results will help you decide how hot, cold, wet, or windy it might be!

Date:

Astronomy

Sep. 29, 2013 Rise Set
Actual Time 7:31 AM CEST 7:15 PM CEST
Civil Twilight 6:57 AM CEST 7:49 PM CEST
Nautical Twilight 6:16 AM CEST 8:29 PM CEST
Astronomical Twilight 5:34 AM CEST 9:11 PM CEST
Moon 1:19 AM CEST (9/29) 4:36 PM CEST (9/29)
Length of Visible Light 12h 52m
Length of Day
11h 43m
Waning Crescent, 29% of the Moon is Illuminated
Sep 29
Waning Crescent
Oct 5
New
Oct 12
First Quarter
Oct 19
Full
Oct 27
Last Quarter

Hourly Weather History & Observations

Time (CEST) Temp. Windchill Dew Point Humidity Pressure Visibility Wind Dir Wind Speed Gust Speed Precip Events Conditions
12:25 AM 48.2 °F - 42.8 °F 82% 29.98 in 6.2 mi East 10.4 mph - N/A   Unknown
12:55 AM 48.2 °F - 42.8 °F 82% 29.98 in 6.2 mi East 9.2 mph - N/A   Unknown
1:25 AM 46.4 °F 42.4 °F 42.8 °F 87% 29.98 in 6.2 mi East 8.1 mph - N/A   Unknown
1:55 AM 46.4 °F 41.9 °F 42.8 °F 87% 29.98 in 6.2 mi ENE 9.2 mph - N/A   Unknown
2:00 AM 47 °F - 43 °F 82% 30.00 in 19 mi East 11.2 mph - -   Partly Cloudy
2:25 AM 48.2 °F - 42.8 °F 82% 29.98 in 6.2 mi East 10.4 mph - N/A   Unknown
2:55 AM 46.4 °F 41.5 °F 42.8 °F 87% 29.98 in 6.2 mi East 10.4 mph - N/A   Unknown
3:25 AM 46.4 °F 41.5 °F 42.8 °F 87% 29.98 in 6.2 mi East 10.4 mph - N/A   Unknown
3:55 AM 46.4 °F 41.1 °F 42.8 °F 87% 29.98 in 6.2 mi East 11.5 mph - N/A   Unknown
4:25 AM 46.4 °F 41.5 °F 42.8 °F 87% 29.98 in 6.2 mi East 10.4 mph - N/A   Unknown
4:55 AM 46.4 °F 41.1 °F 42.8 °F 87% 29.98 in 6.2 mi East 11.5 mph - N/A   Unknown
5:00 AM 46 °F - 42 °F 83% 29.98 in 16 mi East 11.2 mph - -  
5:25 AM 46.4 °F 41.1 °F 42.8 °F 87% 29.95 in 6.2 mi East 11.5 mph - N/A   Unknown
5:55 AM 44.6 °F 39.2 °F 42.8 °F 93% 29.95 in 6.2 mi East 10.4 mph - N/A   Unknown
6:25 AM 44.6 °F 38.8 °F 41.0 °F 87% 29.95 in 6.2 mi East 11.5 mph - N/A   Unknown
6:55 AM 44.6 °F 38.4 °F 41.0 °F 87% 29.95 in 6.2 mi East 12.7 mph - N/A   Unknown
7:25 AM 44.6 °F 38.8 °F 41.0 °F 87% 29.95 in 6.2 mi ENE 11.5 mph - N/A   Unknown
7:55 AM 44.6 °F 38.4 °F 41.0 °F 87% 29.95 in 6.2 mi East 12.7 mph - N/A   Unknown
8:00 AM 45 °F - 41 °F 81% 29.97 in 19 mi East 13.4 mph - -   Partly Cloudy
8:25 AM 44.6 °F 38.1 °F 41.0 °F 87% 29.95 in 6.2 mi East 13.8 mph - N/A   Unknown
8:55 AM 46.4 °F 41.1 °F 41.0 °F 81% 29.95 in 6.2 mi East 11.5 mph - N/A   Unknown
9:25 AM 48.2 °F - 42.8 °F 82% 29.98 in 6.2 mi East 13.8 mph - N/A   Unknown
9:55 AM 50.0 °F - 42.8 °F 76% 29.98 in 6.2 mi East 13.8 mph - N/A   Unknown
10:25 AM 51.8 °F - 42.8 °F 71% 29.98 in 6.2 mi East 15.0 mph - N/A   Unknown
10:55 AM 53.6 °F - 42.8 °F 67% 29.95 in 6.2 mi East 16.1 mph - N/A   Unknown
11:00 AM 54 °F - 42 °F 54% 29.97 in 19 mi East 17.9 mph - -  
11:25 AM 53.6 °F - 42.8 °F 67% 29.95 in 6.2 mi East 17.3 mph 29.9 mph N/A   Unknown
11:55 AM 55.4 °F - 42.8 °F 63% 29.95 in 6.2 mi East 18.4 mph - N/A   Unknown
12:25 PM 57.2 °F - 42.8 °F 59% 29.95 in 6.2 mi East 20.7 mph 33.4 mph N/A   Unknown
12:55 PM 57.2 °F - 42.8 °F 59% 29.95 in 6.2 mi East 16.1 mph - N/A   Unknown
1:25 PM 59.0 °F - 42.8 °F 55% 29.95 in 6.2 mi East 17.3 mph 32.2 mph N/A   Unknown
1:55 PM 59.0 °F - 41.0 °F 51% 29.95 in 6.2 mi ESE 16.1 mph - N/A   Unknown
2:00 PM 59 °F - 41 °F 41% 29.95 in 22 mi East 15.7 mph - -   Partly Cloudy
2:25 PM 59.0 °F - 41.0 °F 51% 29.92 in 6.2 mi East 19.6 mph - N/A   Unknown
2:55 PM 59.0 °F - 41.0 °F 51% 29.92 in 6.2 mi East 16.1 mph 27.6 mph N/A   Unknown
3:25 PM 59.0 °F - 41.0 °F 51% 29.92 in 6.2 mi East 17.3 mph 28.8 mph N/A   Unknown
3:55 PM 59.0 °F - 41.0 °F 51% 29.92 in 6.2 mi East 17.3 mph 28.8 mph N/A   Unknown
4:25 PM 59.0 °F - 41.0 °F 51% 29.89 in 6.2 mi East 17.3 mph - N/A   Unknown
4:55 PM 59.0 °F - 41.0 °F 51% 29.89 in 6.2 mi East 16.1 mph - N/A   Unknown
5:00 PM 59 °F - 41 °F 40% 29.91 in 22 mi East 17.9 mph - -  
5:25 PM 59.0 °F - 41.0 °F 51% 29.89 in 6.2 mi East 17.3 mph - N/A   Unknown
5:55 PM 59.0 °F - 41.0 °F 51% 29.89 in 6.2 mi East 15.0 mph - N/A   Unknown
6:25 PM 57.2 °F - 41.0 °F 55% 29.89 in 6.2 mi East 15.0 mph - N/A   Unknown
6:55 PM 57.2 °F - 41.0 °F 55% 29.89 in 6.2 mi East 13.8 mph - N/A   Unknown
7:25 PM 55.4 °F - 41.0 °F 58% 29.92 in 6.2 mi East 13.8 mph - N/A   Unknown
7:55 PM 53.6 °F - 41.0 °F 62% 29.92 in 6.2 mi East 10.4 mph - N/A   Unknown
8:00 PM 54 °F - 41 °F 50% 29.93 in 28 mi East 13.4 mph - -   Partly Cloudy
8:25 PM 51.8 °F - 41.0 °F 67% 29.92 in 6.2 mi East 10.4 mph - N/A   Unknown
8:55 PM 51.8 °F - 42.8 °F 71% 29.92 in 6.2 mi East 11.5 mph - N/A   Unknown
9:25 PM 51.8 °F - 41.0 °F 67% 29.92 in 6.2 mi East 11.5 mph - N/A   Unknown
9:55 PM 51.8 °F - 41.0 °F 67% 29.95 in 6.2 mi East 11.5 mph - N/A   Unknown
10:25 PM 50.0 °F - 41.0 °F 71% 29.95 in 6.2 mi East 12.7 mph - N/A   Unknown
10:55 PM 50.0 °F - 41.0 °F 71% 29.95 in 6.2 mi East 12.7 mph - N/A   Unknown
11:00 PM 50 °F - 40 °F 60% 29.96 in 28 mi East 13.4 mph - -  
11:25 PM 50.0 °F - 41.0 °F 71% 29.95 in 6.2 mi East 12.7 mph - N/A   Unknown
11:55 PM 50.0 °F - 41.0 °F 71% 29.95 in 6.2 mi East 12.7 mph - N/A   Unknown